Year,Month,Day,Hour,Minute,Value (Times are PST for barometer in hPa)
2010,04,02,00,00,1006.67
2010,04,02,00,01,1006.67
2010,04,02,00,02,1006.67
2010,04,02,00,03,1006.67
2010,04,02,00,04,1006.67
2010,04,02,00,05,1006.67
2010,04,02,00,06,1006.67
2010,04,02,00,07,1006.67
2010,04,02,00,08,1006.67
2010,04,02,00,09,1006.67
2010,04,02,00,10,1006.67
2010,04,02,00,11,1006.67
2010,04,02,00,12,1006.67
2010,04,02,00,13,1006.67
2010,04,02,00,14,1006.65
2010,04,02,00,15,1006.37
2010,04,02,00,16,1006.37
2010,04,02,00,17,1006.37
2010,04,02,00,18,1006.37
2010,04,02,00,19,1006.37
2010,04,02,00,20,1006.37
2010,04,02,00,21,1006.37
2010,04,02,00,22,1006.37
2010,04,02,00,23,1006.37
2010,04,02,00,24,1006.37
2010,04,02,00,25,1006.37
2010,04,02,00,26,1006.37
2010,04,02,00,27,1006.37
2010,04,02,00,28,1006.37
2010,04,02,00,29,1006.35
2010,04,02,00,30,1005.93
2010,04,02,00,31,1005.93
2010,04,02,00,32,1005.93
2010,04,02,00,33,1005.93
2010,04,02,00,34,1005.93
2010,04,02,00,35,1005.93
2010,04,02,00,36,1005.93
2010,04,02,00,37,1005.93
2010,04,02,00,38,1005.93
2010,04,02,00,39,1005.93
2010,04,02,00,40,1005.93
2010,04,02,00,41,1005.93
2010,04,02,00,42,1005.93
2010,04,02,00,43,1005.93
2010,04,02,00,44,1005.90
2010,04,02,00,45,1005.42
2010,04,02,00,46,1005.42
2010,04,02,00,47,1005.42
2010,04,02,00,48,1005.42
2010,04,02,00,49,1005.42
2010,04,02,00,50,1005.42
2010,04,02,00,51,1005.42
2010,04,02,00,52,1005.42
2010,04,02,00,53,1005.42
2010,04,02,00,54,1005.42
2010,04,02,00,55,1005.42
2010,04,02,00,56,1005.42
2010,04,02,00,57,1005.42
2010,04,02,00,58,1005.42
2010,04,02,00,59,1005.40
2010,04,02,01,00,1005.05
2010,04,02,01,01,1005.05
2010,04,02,01,02,1005.05
2010,04,02,01,03,1005.05
2010,04,02,01,04,1005.05
2010,04,02,01,05,1005.05
2010,04,02,01,06,1005.05
2010,04,02,01,07,1005.05
2010,04,02,01,08,1005.05
2010,04,02,01,09,1005.05
2010,04,02,01,10,1005.05
2010,04,02,01,11,1005.05
2010,04,02,01,12,1005.05
2010,04,02,01,13,1005.05
2010,04,02,01,14,1005.05
2010,04,02,01,15,1004.91
2010,04,02,01,16,1004.91
2010,04,02,01,17,1004.91
2010,04,02,01,18,1004.91
2010,04,02,01,19,1004.91
2010,04,02,01,20,1004.91
2010,04,02,01,21,1004.91
2010,04,02,01,22,1004.91
2010,04,02,01,23,1004.91
2010,04,02,01,24,1004.91
2010,04,02,01,25,1004.91
2010,04,02,01,26,1004.91
2010,04,02,01,27,1004.91
2010,04,02,01,28,1004.91
2010,04,02,01,29,1004.91
2010,04,02,01,30,1004.47
2010,04,02,01,31,1004.47
2010,04,02,01,32,1004.47
2010,04,02,01,33,1004.47
2010,04,02,01,34,1004.47
2010,04,02,01,35,1004.47
2010,04,02,01,36,1004.47
2010,04,02,01,37,1004.47
2010,04,02,01,38,1004.47
2010,04,02,01,39,1004.47
2010,04,02,01,40,1004.47
2010,04,02,01,41,1004.47
2010,04,02,01,42,1004.47
2010,04,02,01,43,1004.47
2010,04,02,01,44,1004.45
2010,04,02,01,45,1004.17
2010,04,02,01,46,1004.17
2010,04,02,01,47,1004.17
2010,04,02,01,48,1004.17
2010,04,02,01,49,1004.17
2010,04,02,01,50,1004.17
2010,04,02,01,51,1004.17
2010,04,02,01,52,1004.17
2010,04,02,01,53,1004.17
2010,04,02,01,54,1004.17
2010,04,02,01,55,1004.17
2010,04,02,01,56,1004.17
2010,04,02,01,57,1004.17
2010,04,02,01,58,1004.17
2010,04,02,01,59,1004.17
2010,04,02,02,00,1003.83
2010,04,02,02,01,1003.83
2010,04,02,02,02,1003.83
2010,04,02,02,03,1003.83
2010,04,02,02,04,1003.83
2010,04,02,02,05,1003.83
2010,04,02,02,06,1003.83
2010,04,02,02,07,1003.83
2010,04,02,02,08,1003.83
2010,04,02,02,09,1003.83
2010,04,02,02,10,1003.83
2010,04,02,02,11,1003.83
2010,04,02,02,12,1003.83
2010,04,02,02,13,1003.83
2010,04,02,02,14,1003.83
2010,04,02,02,15,1003.35
2010,04,02,02,16,1003.35
2010,04,02,02,17,1003.35
2010,04,02,02,18,1003.35
2010,04,02,02,19,1003.35
2010,04,02,02,20,1003.35
2010,04,02,02,21,1003.35
2010,04,02,02,22,1003.35
2010,04,02,02,23,1003.35
2010,04,02,02,24,1003.35
2010,04,02,02,25,1003.35
2010,04,02,02,26,1003.35
2010,04,02,02,27,1003.35
2010,04,02,02,28,1003.35
2010,04,02,02,29,1003.32
2010,04,02,02,30,1002.85
2010,04,02,02,31,1002.85
2010,04,02,02,32,1002.85
2010,04,02,02,33,1002.85
2010,04,02,02,34,1002.85
2010,04,02,02,35,1002.85
2010,04,02,02,36,1002.85
2010,04,02,02,37,1002.85
2010,04,02,02,38,1002.85
2010,04,02,02,39,1002.85
2010,04,02,02,40,1002.85
2010,04,02,02,41,1002.85
2010,04,02,02,42,1002.85
2010,04,02,02,43,1002.85
2010,04,02,02,44,1002.85
2010,04,02,02,45,1002.74
2010,04,02,02,46,1002.74
2010,04,02,02,47,1002.74
2010,04,02,02,48,1002.74
2010,04,02,02,49,1002.74
2010,04,02,02,50,1002.74
2010,04,02,02,51,1002.74
2010,04,02,02,52,1002.74
2010,04,02,02,53,1002.74
2010,04,02,02,54,1002.74
2010,04,02,02,55,1002.74
2010,04,02,02,56,1002.74
2010,04,02,02,57,1002.74
2010,04,02,02,58,1002.74
2010,04,02,02,59,1002.74
2010,04,02,03,00,1002.24
2010,04,02,03,01,1002.24
2010,04,02,03,02,1002.24
2010,04,02,03,03,1002.24
2010,04,02,03,04,1002.24
2010,04,02,03,05,1002.24
2010,04,02,03,06,1002.24
2010,04,02,03,07,1002.24
2010,04,02,03,08,1002.24
2010,04,02,03,09,1002.24
2010,04,02,03,10,1002.24
2010,04,02,03,11,1002.24
2010,04,02,03,12,1002.24
2010,04,02,03,13,1002.24
2010,04,02,03,14,1002.24
2010,04,02,03,15,1001.80
2010,04,02,03,16,1001.80
2010,04,02,03,17,1001.80
2010,04,02,03,18,1001.80
2010,04,02,03,19,1001.80
2010,04,02,03,20,1001.80
2010,04,02,03,21,1001.80
2010,04,02,03,22,1001.80
2010,04,02,03,23,1001.80
2010,04,02,03,24,1001.80
2010,04,02,03,25,1001.80
2010,04,02,03,26,1001.80
2010,04,02,03,27,1001.80
2010,04,02,03,28,1001.80
2010,04,02,03,29,1001.80
2010,04,02,03,30,1001.25
2010,04,02,03,31,1001.25
2010,04,02,03,32,1001.25
2010,04,02,03,33,1001.25
2010,04,02,03,34,1001.25
2010,04,02,03,35,1001.25
2010,04,02,03,36,1001.25
2010,04,02,03,37,1001.25
2010,04,02,03,38,1001.25
2010,04,02,03,39,1001.25
2010,04,02,03,40,1001.25
2010,04,02,03,41,1001.25
2010,04,02,03,42,1001.25
2010,04,02,03,43,1001.25
2010,04,02,03,44,1001.25
2010,04,02,03,45,1001.02
2010,04,02,03,46,1001.02
2010,04,02,03,47,1001.02
2010,04,02,03,48,1001.02
2010,04,02,03,49,1001.02
2010,04,02,03,50,1001.02
2010,04,02,03,51,1001.02
2010,04,02,03,52,1001.02
2010,04,02,03,53,1001.02
2010,04,02,03,54,1001.02
2010,04,02,03,55,1001.02
2010,04,02,03,56,1001.02
2010,04,02,03,57,1001.02
2010,04,02,03,58,1001.02
2010,04,02,03,59,1001.02
2010,04,02,04,00,1000.78
2010,04,02,04,01,1000.78
2010,04,02,04,02,1000.78
2010,04,02,04,03,1000.78
2010,04,02,04,04,1000.78
2010,04,02,04,05,1000.78
2010,04,02,04,06,1000.78
2010,04,02,04,07,1000.78
2010,04,02,04,08,1000.78
2010,04,02,04,09,1000.78
2010,04,02,04,10,1000.78
2010,04,02,04,11,1000.78
2010,04,02,04,12,1000.78
2010,04,02,04,13,1000.78
2010,04,02,04,14,1000.78
2010,04,02,04,15,1000.68
2010,04,02,04,16,1000.68
2010,04,02,04,17,1000.68
2010,04,02,04,18,1000.68
2010,04,02,04,19,1000.68
2010,04,02,04,20,1000.68
2010,04,02,04,21,1000.68
2010,04,02,04,22,1000.68
2010,04,02,04,23,1000.68
2010,04,02,04,24,1000.68
2010,04,02,04,25,1000.68
2010,04,02,04,26,1000.68
2010,04,02,04,27,1000.68
2010,04,02,04,28,1000.68
2010,04,02,04,29,1000.68
2010,04,02,04,30,1000.17
2010,04,02,04,31,1000.17
2010,04,02,04,32,1000.17
2010,04,02,04,33,1000.17
2010,04,02,04,34,1000.17
2010,04,02,04,35,1000.17
2010,04,02,04,36,1000.17
2010,04,02,04,37,1000.17
2010,04,02,04,38,1000.17
2010,04,02,04,39,1000.17
2010,04,02,04,40,1000.17
2010,04,02,04,41,1000.17
2010,04,02,04,42,1000.17
2010,04,02,04,43,1000.17
2010,04,02,04,44,1000.15
2010,04,02,04,45,999.70
2010,04,02,04,46,999.70
2010,04,02,04,47,999.70
2010,04,02,04,48,999.70
2010,04,02,04,49,999.70
2010,04,02,04,50,999.70
2010,04,02,04,51,999.70
2010,04,02,04,52,999.70
2010,04,02,04,53,999.70
2010,04,02,04,54,999.70
2010,04,02,04,55,999.70
2010,04,02,04,56,999.70
2010,04,02,04,57,999.70
2010,04,02,04,58,999.70
2010,04,02,04,59,999.70
2010,04,02,05,00,999.09
2010,04,02,05,01,999.09
2010,04,02,05,02,999.09
2010,04,02,05,03,999.09
2010,04,02,05,04,999.09
2010,04,02,05,05,999.09
2010,04,02,05,06,999.09
2010,04,02,05,07,999.09
2010,04,02,05,08,999.09
2010,04,02,05,09,999.09
2010,04,02,05,10,999.09
2010,04,02,05,11,999.09
2010,04,02,05,12,999.09
2010,04,02,05,13,999.09
2010,04,02,05,14,999.09
2010,04,02,05,15,998.24
2010,04,02,05,16,998.24
2010,04,02,05,17,998.24
2010,04,02,05,18,998.24
2010,04,02,05,19,998.24
2010,04,02,05,20,998.24
2010,04,02,05,21,998.24
2010,04,02,05,22,998.24
2010,04,02,05,23,998.24
2010,04,02,05,24,998.24
2010,04,02,05,25,998.24
2010,04,02,05,26,998.24
2010,04,02,05,27,998.24
2010,04,02,05,28,998.24
2010,04,02,05,29,998.24
2010,04,02,05,30,997.39
2010,04,02,05,31,997.39
2010,04,02,05,32,997.39
2010,04,02,05,33,997.39
2010,04,02,05,34,997.39
2010,04,02,05,35,997.39
2010,04,02,05,36,997.39
2010,04,02,05,37,997.39
2010,04,02,05,38,997.39
2010,04,02,05,39,997.39
2010,04,02,05,40,997.39
2010,04,02,05,41,997.39
2010,04,02,05,42,997.39
2010,04,02,05,43,997.39
2010,04,02,05,44,997.39
2010,04,02,05,45,996.41
2010,04,02,05,46,996.41
2010,04,02,05,47,996.41
2010,04,02,05,48,996.41
2010,04,02,05,49,996.41
2010,04,02,05,50,996.41
2010,04,02,05,51,996.41
2010,04,02,05,52,996.41
2010,04,02,05,53,996.41
2010,04,02,05,54,996.41
2010,04,02,05,55,996.41
2010,04,02,05,56,996.41
2010,04,02,05,57,996.41
2010,04,02,05,58,996.41
2010,04,02,05,59,996.41
2010,04,02,06,00,995.70
2010,04,02,06,01,995.70
2010,04,02,06,02,995.70
2010,04,02,06,03,995.70
2010,04,02,06,04,995.70
2010,04,02,06,05,995.70
2010,04,02,06,06,995.70
2010,04,02,06,07,995.70
2010,04,02,06,08,995.70
2010,04,02,06,09,995.70
2010,04,02,06,10,995.70
2010,04,02,06,11,995.70
2010,04,02,06,12,995.70
2010,04,02,06,13,995.70
2010,04,02,06,14,995.70
2010,04,02,06,15,995.02
2010,04,02,06,16,995.02
2010,04,02,06,17,995.02
2010,04,02,06,18,995.02
2010,04,02,06,19,995.02
2010,04,02,06,20,995.02
2010,04,02,06,21,995.02
2010,04,02,06,22,995.02
2010,04,02,06,23,995.02
2010,04,02,06,24,995.02
2010,04,02,06,25,995.02
2010,04,02,06,26,995.02
2010,04,02,06,27,995.02
2010,04,02,06,28,995.02
2010,04,02,06,29,995.02
2010,04,02,06,30,995.02
2010,04,02,06,31,995.02
2010,04,02,06,32,995.02
2010,04,02,06,33,995.02
2010,04,02,06,34,995.02
2010,04,02,06,35,995.02
2010,04,02,06,36,995.02
2010,04,02,06,37,995.02
2010,04,02,06,38,995.02
2010,04,02,06,39,995.02
2010,04,02,06,40,995.02
2010,04,02,06,41,995.02
2010,04,02,06,42,995.02
2010,04,02,06,43,995.02
2010,04,02,06,44,995.02
2010,04,02,06,45,994.55
2010,04,02,06,46,994.55
2010,04,02,06,47,994.55
2010,04,02,06,48,994.55
2010,04,02,06,49,994.55
2010,04,02,06,50,994.55
2010,04,02,06,51,994.55
2010,04,02,06,52,994.55
2010,04,02,06,53,994.55
2010,04,02,06,54,994.55
2010,04,02,06,55,994.55
2010,04,02,06,56,994.55
2010,04,02,06,57,994.55
2010,04,02,06,58,994.55
2010,04,02,06,59,994.55
2010,04,02,07,00,993.60
2010,04,02,07,01,993.60
2010,04,02,07,02,993.60
2010,04,02,07,03,993.60
2010,04,02,07,04,993.60
2010,04,02,07,05,993.60
2010,04,02,07,06,993.60
2010,04,02,07,07,993.60
2010,04,02,07,08,993.60
2010,04,02,07,09,993.60
2010,04,02,07,10,993.60
2010,04,02,07,11,993.60
2010,04,02,07,12,993.60
2010,04,02,07,13,993.60
2010,04,02,07,14,993.60
2010,04,02,07,15,992.96
2010,04,02,07,16,992.96
2010,04,02,07,17,992.96
2010,04,02,07,18,992.96
2010,04,02,07,19,992.96
2010,04,02,07,20,992.96
2010,04,02,07,21,992.96
2010,04,02,07,22,992.96
2010,04,02,07,23,992.96
2010,04,02,07,24,992.96
2010,04,02,07,25,992.96
2010,04,02,07,26,992.96
2010,04,02,07,27,992.96
2010,04,02,07,28,992.96
2010,04,02,07,29,992.96
2010,04,02,08,16,990.86
2010,04,02,08,17,990.86
2010,04,02,08,18,990.86
2010,04,02,08,19,990.86
2010,04,02,08,20,990.86
2010,04,02,08,21,990.86
2010,04,02,08,22,990.86
2010,04,02,08,23,990.86
2010,04,02,08,24,990.86
2010,04,02,08,25,990.86
2010,04,02,08,26,990.86
2010,04,02,08,27,990.86
2010,04,02,08,28,989.89
2010,04,02,08,29,989.84
2010,04,02,08,30,989.84
2010,04,02,08,31,989.84
2010,04,02,08,32,989.84
2010,04,02,08,33,989.84
2010,04,02,08,34,989.84
2010,04,02,08,35,989.84
2010,04,02,08,36,989.84
2010,04,02,08,37,989.84
2010,04,02,08,38,989.84
2010,04,02,08,39,989.84
2010,04,02,08,40,989.84
2010,04,02,08,41,989.84
2010,04,02,08,42,989.84
2010,04,02,08,43,988.84
2010,04,02,08,44,988.79
2010,04,02,08,45,988.79
2010,04,02,08,46,988.79
2010,04,02,08,47,988.79
2010,04,02,08,48,988.79
2010,04,02,08,49,988.79
2010,04,02,08,50,988.79
2010,04,02,08,51,988.79
2010,04,02,08,52,988.79
2010,04,02,08,53,988.79
2010,04,02,08,54,988.79
2010,04,02,08,55,988.79
2010,04,02,08,56,988.79
2010,04,02,08,57,988.79
2010,04,02,08,58,988.79
2010,04,02,08,59,988.79
2010,04,02,09,00,988.79
2010,04,02,09,01,988.79
2010,04,02,09,02,988.79
2010,04,02,09,03,988.79
2010,04,02,09,04,988.79
2010,04,02,09,05,988.79
2010,04,02,09,06,988.79
2010,04,02,09,07,988.79
2010,04,02,09,08,988.79
2010,04,02,09,09,988.79
2010,04,02,09,10,988.79
2010,04,02,09,11,988.79
2010,04,02,09,12,988.79
2010,04,02,09,13,987.79
2010,04,02,09,14,987.74
2010,04,02,09,15,987.74
2010,04,02,09,16,987.74
2010,04,02,09,17,987.74
2010,04,02,09,18,987.74
2010,04,02,09,19,987.74
2010,04,02,09,20,987.74
2010,04,02,09,21,987.74
2010,04,02,09,22,987.74
2010,04,02,09,23,987.74
2010,04,02,09,24,987.74
2010,04,02,09,25,987.74
2010,04,02,09,26,987.74
2010,04,02,09,27,987.74
2010,04,02,09,28,987.26
2010,04,02,09,29,987.23
2010,04,02,09,30,987.23
2010,04,02,09,31,987.23
2010,04,02,09,32,987.23
2010,04,02,09,33,987.23
2010,04,02,09,34,987.23
2010,04,02,09,35,987.23
2010,04,02,09,36,987.23
2010,04,02,09,37,987.23
2010,04,02,09,38,987.23
2010,04,02,09,39,987.23
2010,04,02,09,40,987.23
2010,04,02,09,41,987.23
2010,04,02,09,42,987.23
2010,04,02,09,43,986.72
2010,04,02,09,44,986.69
2010,04,02,09,45,986.69
2010,04,02,09,46,986.69
2010,04,02,09,47,986.69
2010,04,02,09,48,986.69
2010,04,02,09,49,986.69
2010,04,02,09,50,986.69
2010,04,02,09,51,986.69
2010,04,02,09,52,986.69
2010,04,02,09,53,986.69
2010,04,02,09,54,986.69
2010,04,02,09,55,986.69
2010,04,02,09,56,986.69
2010,04,02,09,57,986.69
2010,04,02,09,58,986.24
2010,04,02,09,59,986.22
2010,04,02,10,00,986.22
2010,04,02,10,01,986.22
2010,04,02,10,02,986.22
2010,04,02,10,03,986.22
2010,04,02,10,04,986.22
2010,04,02,10,05,986.22
2010,04,02,10,06,986.22
2010,04,02,10,07,986.22
2010,04,02,10,08,986.22
2010,04,02,10,09,986.22
2010,04,02,10,10,986.22
2010,04,02,10,11,986.22
2010,04,02,10,12,986.22
2010,04,02,10,13,986.16
2010,04,02,10,14,986.15
2010,04,02,10,15,986.15
2010,04,02,10,16,986.15
2010,04,02,10,17,986.15
2010,04,02,10,18,986.15
2010,04,02,10,19,986.15
2010,04,02,10,20,986.15
2010,04,02,10,21,986.15
2010,04,02,10,22,986.15
2010,04,02,10,23,986.15
2010,04,02,10,24,986.15
2010,04,02,10,25,986.15
2010,04,02,10,26,986.15
2010,04,02,10,27,986.15
2010,04,02,10,28,985.96
2010,04,02,10,29,985.95
2010,04,02,10,30,985.95
2010,04,02,10,31,985.95
2010,04,02,10,32,985.95
2010,04,02,10,33,985.95
2010,04,02,10,34,985.95
2010,04,02,10,35,985.95
2010,04,02,10,36,985.95
2010,04,02,10,37,985.95
2010,04,02,10,38,985.95
2010,04,02,10,39,985.95
2010,04,02,10,40,985.95
2010,04,02,10,41,985.95
2010,04,02,10,42,985.95
2010,04,02,10,43,985.69
2010,04,02,10,44,985.68
2010,04,02,10,45,985.68
2010,04,02,10,46,985.68
2010,04,02,10,47,985.68
2010,04,02,10,48,985.68
2010,04,02,10,49,985.68
2010,04,02,10,50,985.68
2010,04,02,10,51,985.68
2010,04,02,10,52,985.68
2010,04,02,10,53,985.68
2010,04,02,10,54,985.68
2010,04,02,10,55,985.68
2010,04,02,10,56,985.68
2010,04,02,10,57,985.68
2010,04,02,10,58,985.26
2010,04,02,10,59,985.24
2010,04,02,11,00,985.24
2010,04,02,11,01,985.24
2010,04,02,11,02,985.24
2010,04,02,11,03,985.24
2010,04,02,11,04,985.24
2010,04,02,11,05,985.24
2010,04,02,11,06,985.24
2010,04,02,11,07,985.24
2010,04,02,11,08,985.24
2010,04,02,11,09,985.24
2010,04,02,11,10,985.24
2010,04,02,11,11,985.24
2010,04,02,11,12,985.24
2010,04,02,11,13,985.43
2010,04,02,11,14,985.44
2010,04,02,11,15,985.44
2010,04,02,11,16,985.44
2010,04,02,11,17,985.44
2010,04,02,11,18,985.44
2010,04,02,11,19,985.44
2010,04,02,11,20,985.44
2010,04,02,11,21,985.44
2010,04,02,11,22,985.44
2010,04,02,11,23,985.44
2010,04,02,11,24,985.44
2010,04,02,11,25,985.44
2010,04,02,11,26,985.44
2010,04,02,11,27,985.44
2010,04,02,11,28,985.25
2010,04,02,11,29,985.24
2010,04,02,11,30,985.24
2010,04,02,11,31,985.24
2010,04,02,11,32,985.24
2010,04,02,11,33,985.24
2010,04,02,11,34,985.24
2010,04,02,11,35,985.24
2010,04,02,11,36,985.24
2010,04,02,11,37,985.24
2010,04,02,11,38,985.24
2010,04,02,11,39,985.24
2010,04,02,11,40,985.24
2010,04,02,11,41,985.24
2010,04,02,11,42,985.24
2010,04,02,11,43,985.11
2010,04,02,11,44,985.10
2010,04,02,11,45,985.10
2010,04,02,11,46,985.10
2010,04,02,11,47,985.10
2010,04,02,11,48,985.10
2010,04,02,11,49,985.10
2010,04,02,11,50,985.10
2010,04,02,11,51,985.10
2010,04,02,11,52,985.10
2010,04,02,11,53,985.10
2010,04,02,11,54,985.10
2010,04,02,11,55,985.10
2010,04,02,11,56,985.10
2010,04,02,11,57,985.10
2010,04,02,11,58,985.07
2010,04,02,11,59,985.07
2010,04,02,12,00,985.07
2010,04,02,12,01,985.07
2010,04,02,12,02,985.07
2010,04,02,12,03,985.07
2010,04,02,12,04,985.07
2010,04,02,12,05,985.07
2010,04,02,12,06,985.07
2010,04,02,12,07,985.07
2010,04,02,12,08,985.07
2010,04,02,12,09,985.07
2010,04,02,12,10,985.07
2010,04,02,12,11,985.07
2010,04,02,12,12,985.07
2010,04,02,12,13,985.42
2010,04,02,12,14,985.44
2010,04,02,12,15,985.44
2010,04,02,12,16,985.44
2010,04,02,12,17,985.44
2010,04,02,12,18,985.44
2010,04,02,12,19,985.44
2010,04,02,12,20,985.44
2010,04,02,12,21,985.44
2010,04,02,12,22,985.44
2010,04,02,12,23,985.44
2010,04,02,12,24,985.44
2010,04,02,12,25,985.44
2010,04,02,12,26,985.44
2010,04,02,12,27,985.44
2010,04,02,12,28,985.63
2010,04,02,12,29,985.64
2010,04,02,12,30,985.64
2010,04,02,12,31,985.64
2010,04,02,12,32,985.64
2010,04,02,12,33,985.64
2010,04,02,12,34,985.64
2010,04,02,12,35,985.64
2010,04,02,12,36,985.64
2010,04,02,12,37,985.64
2010,04,02,12,38,985.64
2010,04,02,12,39,985.64
2010,04,02,12,40,985.64
2010,04,02,12,41,985.64
2010,04,02,12,42,985.64
2010,04,02,12,43,985.64
2010,04,02,12,44,985.64
2010,04,02,12,45,985.64
2010,04,02,12,46,985.64
2010,04,02,12,47,985.64
2010,04,02,12,48,985.64
2010,04,02,12,49,985.64
2010,04,02,12,50,985.64
2010,04,02,12,51,985.64
2010,04,02,12,52,985.64
2010,04,02,12,53,985.64
2010,04,02,12,54,985.64
2010,04,02,12,55,985.64
2010,04,02,12,56,985.64
2010,04,02,12,57,985.64
2010,04,02,12,58,985.77
2010,04,02,12,59,985.78
2010,04,02,13,00,985.78
2010,04,02,13,01,985.78
2010,04,02,13,02,985.78
2010,04,02,13,03,985.78
2010,04,02,13,04,985.78
2010,04,02,13,05,985.78
2010,04,02,13,06,985.78
2010,04,02,13,07,985.78
2010,04,02,13,08,985.78
2010,04,02,13,09,985.78
2010,04,02,13,10,985.78
2010,04,02,13,11,985.78
2010,04,02,13,12,985.78
2010,04,02,13,13,986.05
2010,04,02,13,14,986.08
2010,04,02,13,15,986.08
2010,04,02,13,16,986.08
2010,04,02,13,17,986.08
2010,04,02,13,18,986.08
2010,04,02,13,19,986.08
2010,04,02,13,20,986.08
2010,04,02,13,21,986.08
2010,04,02,13,22,986.08
2010,04,02,13,23,986.08
2010,04,02,13,24,986.08
2010,04,02,13,25,986.08
2010,04,02,13,26,986.08
2010,04,02,13,27,986.08
2010,04,02,13,28,986.05
2010,04,02,13,29,986.05
2010,04,02,13,30,986.05
2010,04,02,13,31,986.05
2010,04,02,13,32,986.05
2010,04,02,13,33,986.05
2010,04,02,13,34,986.05
2010,04,02,13,35,986.05
2010,04,02,13,36,986.05
2010,04,02,13,37,986.05
2010,04,02,13,38,986.05
2010,04,02,13,39,986.05
2010,04,02,13,40,986.05
2010,04,02,13,41,986.05
2010,04,02,13,42,986.05
2010,04,02,13,43,986.22
2010,04,02,13,44,986.25
2010,04,02,13,45,986.25
2010,04,02,13,46,986.25
2010,04,02,13,47,986.25
2010,04,02,13,48,986.25
2010,04,02,13,49,986.25
2010,04,02,13,50,986.25
2010,04,02,13,51,986.25
2010,04,02,13,52,986.25
2010,04,02,13,53,986.25
2010,04,02,13,54,986.25
2010,04,02,13,55,986.25
2010,04,02,13,56,986.25
2010,04,02,13,57,986.25
2010,04,02,13,58,986.64
2010,04,02,13,59,986.66
2010,04,02,14,00,986.66
2010,04,02,14,01,986.66
2010,04,02,14,02,986.66
2010,04,02,14,03,986.66
2010,04,02,14,04,986.66
2010,04,02,14,05,986.66
2010,04,02,14,06,986.66
2010,04,02,14,07,986.66
2010,04,02,14,08,986.66
2010,04,02,14,09,986.66
2010,04,02,14,10,986.66
2010,04,02,14,11,986.66
2010,04,02,14,12,986.66
2010,04,02,14,13,987.04
2010,04,02,14,14,987.06
2010,04,02,14,15,987.06
2010,04,02,14,16,987.06
2010,04,02,14,17,987.06
2010,04,02,14,18,987.06
2010,04,02,14,19,987.06
2010,04,02,14,20,987.06
2010,04,02,14,21,987.06
2010,04,02,14,22,987.06
2010,04,02,14,23,987.06
2010,04,02,14,24,987.06
2010,04,02,14,25,987.06
2010,04,02,14,26,987.06
2010,04,02,14,27,987.06
2010,04,02,14,28,987.30
2010,04,02,14,29,987.34
2010,04,02,14,30,987.34
2010,04,02,14,31,987.34
2010,04,02,14,32,987.34
2010,04,02,14,33,987.34
2010,04,02,14,34,987.34
2010,04,02,14,35,987.34
2010,04,02,14,36,987.34
2010,04,02,14,37,987.34
2010,04,02,14,38,987.34
2010,04,02,14,39,987.34
2010,04,02,14,40,987.34
2010,04,02,14,41,987.34
2010,04,02,14,42,987.34
2010,04,02,14,43,987.69
2010,04,02,14,44,987.71
2010,04,02,14,45,987.71
2010,04,02,14,46,987.71
2010,04,02,14,47,987.71
2010,04,02,14,48,987.71
2010,04,02,14,49,987.71
2010,04,02,14,50,987.71
2010,04,02,14,51,987.71
2010,04,02,14,52,987.71
2010,04,02,14,53,987.71
2010,04,02,14,54,987.71
2010,04,02,14,55,987.71
2010,04,02,14,56,987.71
2010,04,02,14,57,987.71
2010,04,02,14,58,987.97
2010,04,02,14,59,987.98
2010,04,02,15,00,987.98
2010,04,02,15,01,987.98
2010,04,02,15,02,987.98
2010,04,02,15,03,987.98
2010,04,02,15,04,987.98
2010,04,02,15,05,987.98
2010,04,02,15,06,987.98
2010,04,02,15,07,987.98
2010,04,02,15,08,987.98
2010,04,02,15,09,987.98
2010,04,02,15,10,987.98
2010,04,02,15,11,987.98
2010,04,02,15,12,987.98
2010,04,02,15,13,988.21
2010,04,02,15,14,988.22
2010,04,02,15,15,988.22
2010,04,02,15,16,988.22
2010,04,02,15,17,988.22
2010,04,02,15,18,988.22
2010,04,02,15,19,988.22
2010,04,02,15,20,988.22
2010,04,02,15,21,988.22
2010,04,02,15,22,988.22
2010,04,02,15,23,988.22
2010,04,02,15,24,988.22
2010,04,02,15,25,988.22
2010,04,02,15,26,988.22
2010,04,02,15,27,988.22
2010,04,02,15,28,988.53
2010,04,02,15,29,988.55
2010,04,02,15,30,988.55
2010,04,02,15,31,988.55
2010,04,02,15,32,988.55
2010,04,02,15,33,988.55
2010,04,02,15,34,988.55
2010,04,02,15,35,988.55
2010,04,02,15,36,988.55
2010,04,02,15,37,988.55
2010,04,02,15,38,988.55
2010,04,02,15,39,988.55
2010,04,02,15,40,988.55
2010,04,02,15,41,988.55
2010,04,02,15,42,988.55
2010,04,02,15,43,988.91
2010,04,02,15,44,988.93
2010,04,02,15,45,988.93
2010,04,02,15,46,988.93
2010,04,02,15,47,988.93
2010,04,02,15,48,988.93
2010,04,02,15,49,988.93
2010,04,02,15,50,988.93
2010,04,02,15,51,988.93
2010,04,02,15,52,988.93
2010,04,02,15,53,988.93
2010,04,02,15,54,988.93
2010,04,02,15,55,988.93
2010,04,02,15,56,988.93
2010,04,02,15,57,988.93
2010,04,02,15,58,989.03
2010,04,02,15,59,989.03
2010,04,02,16,00,989.03
2010,04,02,16,01,989.03
2010,04,02,16,02,989.03
2010,04,02,16,03,989.03
2010,04,02,16,04,989.03
2010,04,02,16,05,989.03
2010,04,02,16,06,989.03
2010,04,02,16,07,989.03
2010,04,02,16,08,989.03
2010,04,02,16,09,989.03
2010,04,02,16,10,989.03
2010,04,02,16,11,989.03
2010,04,02,16,12,989.03
2010,04,02,16,13,989.03
2010,04,02,16,14,989.03
2010,04,02,16,15,989.03
2010,04,02,16,16,989.03
2010,04,02,16,17,989.03
2010,04,02,16,18,989.03
2010,04,02,16,19,989.03
2010,04,02,16,20,989.03
2010,04,02,16,21,989.03
2010,04,02,16,22,989.03
2010,04,02,16,23,989.03
2010,04,02,16,24,989.03
2010,04,02,16,25,989.03
2010,04,02,16,26,989.03
2010,04,02,16,27,989.03
2010,04,02,16,28,989.32
2010,04,02,16,29,989.37
2010,04,02,16,30,989.37
2010,04,02,16,31,989.37
2010,04,02,16,32,989.37
2010,04,02,16,33,989.37
2010,04,02,16,34,989.37
2010,04,02,16,35,989.37
2010,04,02,16,36,989.37
2010,04,02,16,37,989.37
2010,04,02,16,38,989.37
2010,04,02,16,39,989.37
2010,04,02,16,40,989.37
2010,04,02,16,41,989.37
2010,04,02,16,42,989.37
2010,04,02,16,43,989.77
2010,04,02,16,44,989.81
2010,04,02,16,45,989.81
2010,04,02,16,46,989.81
2010,04,02,16,47,989.81
2010,04,02,16,48,989.81
2010,04,02,16,49,989.81
2010,04,02,16,50,989.81
2010,04,02,16,51,989.81
2010,04,02,16,52,989.81
2010,04,02,16,53,989.81
2010,04,02,16,54,989.81
2010,04,02,16,55,989.81
2010,04,02,16,56,989.81
2010,04,02,16,57,989.81
2010,04,02,16,58,990.29
2010,04,02,16,59,990.32
2010,04,02,17,00,990.32
2010,04,02,17,01,990.32
2010,04,02,17,02,990.32
2010,04,02,17,03,990.32
2010,04,02,17,04,990.32
2010,04,02,17,05,990.32
2010,04,02,17,06,990.32
2010,04,02,17,07,990.32
2010,04,02,17,08,990.32
2010,04,02,17,09,990.32
2010,04,02,17,10,990.32